HST
1 20580U 90037B   24155.17913958  .00006622  00000-0  31146-3 0  9998
2 20580  28.4686  78.9689 0002412 242.5077 117.5270 15.17555348675166
ISS (ZARYA)
1 25544U 98067A   24155.37185494  .00019028  00000-0  33077-3 0  9991
2 25544  51.6402  23.7695 0005819 272.6606 258.0010 15.50818298456406
CXO
1 25867U 99040B   24157.28330877  .00000335  00000-0  00000+0 0  9997
2 25867  40.8904 154.9052 8907266 295.6498 359.8869  0.37810327 25671